^^
Saratoga-Weather Station Historical Data
Daily Summary for September 17, 2020 Units:  English    Metric   Both
Daily Weekly Monthly Yearly Custom
  High: Low: Average:
Temperature: 69.4 °F 47.8 °F 58.3 °F
Dew Point: 45.7 °F 37.6 °F 41.5 °F
Humidity: 75% 37% 55%
Wind Speed: 11mph 0mph 2mph
Wind Gust: 11mph - -
Wind- - SW
Pressure: 30.2 in 30.1 in -
Precipitation: 0 in    
Historical Graphs
 
 
Tabular Data for September 17, 2020
Time Temperature Dew Point Pressure Wind Wind Speed Wind Gust Humidity Rainfall Rate (Hourly) solar
00:04 54.7 °F 41 °F 30.1 in NW 0.9 mph 2 mph 60% 0 in 0 W/m2
00:09 54.7 °F 40.6 °F 30.1 in NNW 2 mph 3 mph 59% 0 in 0 W/m2
00:14 55 °F 41 °F 30.1 in WSW 2.9 mph 3 mph 59% 0 in 0 W/m2
00:19 55.2 °F 40.6 °F 30.1 in SSW 4.9 mph 6 mph 58% 0 in 0 W/m2
00:24 55.2 °F 40.6 °F 30.1 in West 2 mph 2 mph 58% 0 in 0 W/m2
00:29 55.2 °F 41.2 °F 30.1 in NW 2 mph 4 mph 59% 0 in 0 W/m2
00:34 54.9 °F 40.8 °F 30.1 in WSW 2.9 mph 3 mph 59% 0 in 0 W/m2
00:39 54.5 °F 40.8 °F 30.1 in West 2 mph 3 mph 60% 0 in 0 W/m2
00:44 54.1 °F 41 °F 30.1 in WSW 2 mph 3 mph 61% 0 in 0 W/m2
00:49 53.8 °F 40.6 °F 30.1 in WNW 4 mph 8 mph 61% 0 in 0 W/m2
00:54 54 °F 40.8 °F 30.1 in West 2 mph 3 mph 61% 0 in 0 W/m2
00:59 54 °F 41.2 °F 30.1 in Calm   2 mph 62% 0 in 0 W/m2
01:04 54 °F 41.2 °F 30.1 in WSW 0.9 mph 2 mph 62% 0 in 0 W/m2
01:09 53.4 °F 41.2 °F 30.1 in WSW 4.9 mph 5 mph 63% 0 in 0 W/m2
01:15 53.2 °F 41.4 °F 30.1 in Calm   2 mph 64% 0 in 0 W/m2
01:20 53.2 °F 41.4 °F 30.1 in WSW 2 mph 3 mph 64% 0 in 0 W/m2
01:25 53.2 °F 41.4 °F 30.1 in NNW 2 mph 4 mph 64% 0 in 0 W/m2
01:30 53.2 °F 41.4 °F 30.1 in West 4 mph 9 mph 64% 0 in 0 W/m2
01:35 53.6 °F 41.4 °F 30.1 in West 2 mph 6 mph 63% 0 in 0 W/m2
01:40 53.8 °F 41.5 °F 30.1 in SSW 0.9 mph 9 mph 63% 0 in 0 W/m2
01:45 53.8 °F 41.5 °F 30.1 in NNW 2.9 mph 6 mph 63% 0 in 0 W/m2
01:50 53.6 °F 41.4 °F 30.2 in West 2.9 mph 9 mph 63% 0 in 0 W/m2
01:55 53.6 °F 41.4 °F 30.2 in NNW 4 mph 8 mph 63% 0 in 0 W/m2
02:00 53.6 °F 41.4 °F 30.2 in SSW 0.9 mph 4 mph 63% 0 in 0 W/m2
02:05 53.6 °F 41.4 °F 30.2 in East 0.9 mph 5 mph 63% 0 in 0 W/m2
02:10 53.4 °F 41.2 °F 30.2 in NNE 0.9 mph 3 mph 63% 0 in 0 W/m2
02:15 53.2 °F 41 °F 30.2 in NW 2 mph 8 mph 63% 0 in 0 W/m2
02:20 53.2 °F 41.4 °F 30.2 in WNW 2.9 mph 4 mph 64% 0 in 0 W/m2
02:25 53.1 °F 41.2 °F 30.2 in West 2.9 mph 6 mph 64% 0 in 0 W/m2
02:30 52.9 °F 41 °F 30.2 in WSW 0.9 mph 5 mph 64% 0 in 0 W/m2
02:35 52.7 °F 40.8 °F 30.2 in WSW 2.9 mph 9 mph 64% 0 in 0 W/m2
02:40 52.5 °F 41.2 °F 30.2 in WNW 4 mph 4 mph 65% 0 in 0 W/m2
02:45 52.3 °F 41 °F 30.2 in NNW 2 mph 4 mph 65% 0 in 0 W/m2
02:50 52.2 °F 40.8 °F 30.2 in West 2 mph 11 mph 65% 0 in 0 W/m2
02:55 52 °F 41 °F 30.2 in West 2 mph 5 mph 66% 0 in 0 W/m2
03:00 51.8 °F 40.8 °F 30.2 in WNW 2 mph 7 mph 66% 0 in 0 W/m2
03:05 51.6 °F 40.6 °F 30.2 in NNW 0.9 mph 4 mph 66% 0 in 0 W/m2
03:10 51.4 °F 40.5 °F 30.2 in Calm   3 mph 66% 0 in 0 W/m2
03:15 51.3 °F 40.6 °F 30.2 in WNW 2 mph 3 mph 67% 0 in 0 W/m2
03:20 51.1 °F 40.5 °F 30.2 in NNW 2.9 mph 4 mph 67% 0 in 0 W/m2
03:25 50.7 °F 40.5 °F 30.2 in NW 4 mph 4 mph 68% 0 in 0 W/m2
03:30 50.7 °F 40.5 °F 30.2 in WNW 0.9 mph 4 mph 68% 0 in 0 W/m2
03:35 50.7 °F 40.5 °F 30.2 in NNW 2 mph 3 mph 68% 0 in 0 W/m2
03:40 50.5 °F 40.5 °F 30.2 in NW 0.9 mph 4 mph 68% 0 in 0 W/m2
03:45 50.5 °F 40.5 °F 30.2 in WNW 0.9 mph 3 mph 68% 0 in 0 W/m2
03:50 50.4 °F 40.6 °F 30.2 in West 2 mph 3 mph 69% 0 in 0 W/m2
03:55 50.2 °F 40.5 °F 30.2 in WSW 0.9 mph 3 mph 69% 0 in 0 W/m2
04:00 49.8 °F 40.1 °F 30.2 in Calm   1 mph 69% 0 in 0 W/m2
04:05 49.6 °F 40.3 °F 30.2 in NW 2 mph 3 mph 70% 0 in 0 W/m2
04:10 49.6 °F 40.3 °F 30.2 in West 0.9 mph 2 mph 70% 0 in 0 W/m2
04:15 49.5 °F 40.1 °F 30.2 in WNW 2 mph 4 mph 70% 0 in 0 W/m2
04:20 49.5 °F 40.1 °F 30.2 in West 0.9 mph 4 mph 70% 0 in 0 W/m2
04:25 49.5 °F 40.1 °F 30.2 in WNW 0.9 mph 3 mph 70% 0 in 0 W/m2
04:30 49.3 °F 39.9 °F 30.2 in West 0.9 mph 4 mph 70% 0 in 0 W/m2
04:35 49.5 °F 40.1 °F 30.2 in Calm   2 mph 70% 0 in 0 W/m2
04:41 49.3 °F 39.9 °F 30.2 in WSW 0.9 mph 3 mph 70% 0 in 0 W/m2
04:46 49.5 °F 40.1 °F 30.2 in WNW 4.9 mph 5 mph 70% 0 in 0 W/m2
04:51 49.5 °F 40.1 °F 30.2 in WNW 4.9 mph 5 mph 70% 0 in 0 W/m2
04:56 49.5 °F 40.1 °F 30.2 in Calm   3 mph 70% 0 in 0 W/m2
05:01 49.5 °F 40.1 °F 30.2 in WNW 2 mph 2 mph 70% 0 in 0 W/m2
05:06 49.3 °F 39.9 °F 30.2 in Calm   4 mph 70% 0 in 0 W/m2
05:11 49.1 °F 40.1 °F 30.2 in West 2 mph 2 mph 71% 0 in 0 W/m2
05:16 48.9 °F 39.9 °F 30.2 in WSW 2.9 mph 4 mph 71% 0 in 0 W/m2
05:21 48.9 °F 39.9 °F 30.2 in WSW 0.9 mph 3 mph 71% 0 in 0 W/m2
05:26 48.7 °F 39.7 °F 30.2 in NW 0.9 mph 2 mph 71% 0 in 0 W/m2
05:31 48.6 °F 39.9 °F 30.2 in WSW 2 mph 2 mph 72% 0 in 0 W/m2
05:36 48.4 °F 40.1 °F 30.2 in West 2 mph 4 mph 73% 0 in 0 W/m2
05:41 48 °F 39.7 °F 30.2 in NW 2 mph 3 mph 73% 0 in 0 W/m2
05:46 48 °F 39.7 °F 30.2 in West 0.9 mph 4 mph 73% 0 in 0 W/m2
05:51 47.8 °F 39.9 °F 30.2 in WSW 2.9 mph 6 mph 74% 0 in 5 W/m2
05:56 47.8 °F 39.9 °F 30.2 in WSW 2 mph 3 mph 74% 0 in 7 W/m2
06:02 47.8 °F 39.9 °F 30.2 in WNW 0.9 mph 3 mph 74% 0 in 9 W/m2
06:07 47.8 °F 40.3 °F 30.2 in West 2 mph 4 mph 75% 0 in 12 W/m2
06:12 47.8 °F 40.3 °F 30.2 in NNW 2 mph 4 mph 75% 0 in 14 W/m2
06:17 47.8 °F 40.3 °F 30.2 in West 2 mph 5 mph 75% 0 in 18 W/m2
06:22 48 °F 40.5 °F 30.2 in West 2 mph 3 mph 75% 0 in 19 W/m2
06:27 48.2 °F 40.6 °F 30.2 in WSW 4 mph 4 mph 75% 0 in 23 W/m2
06:32 48.4 °F 40.8 °F 30.2 in WNW 2 mph 4 mph 75% 0 in 25 W/m2
06:37 48.4 °F 40.8 °F 30.2 in Calm   2 mph 75% 0 in 28 W/m2
06:42 48.6 °F 41 °F 30.2 in West 2 mph 3 mph 75% 0 in 30 W/m2
06:47 48.6 °F 40.6 °F 30.2 in WNW 2.9 mph 3 mph 74% 0 in 32 W/m2
06:52 48.6 °F 40.6 °F 30.2 in West 2 mph 2 mph 74% 0 in 33 W/m2
06:57 48.7 °F 40.8 °F 30.2 in North 2.9 mph 4 mph 74% 0 in 35 W/m2
07:02 48.7 °F 40.8 °F 30.2 in West 2 mph 3 mph 74% 0 in 37 W/m2
07:07 48.7 °F 40.5 °F 30.2 in North 0.9 mph 3 mph 73% 0 in 39 W/m2
07:12 48.9 °F 40.6 °F 30.2 in North 2.9 mph 3 mph 73% 0 in 40 W/m2
07:17 48.9 °F 40.6 °F 30.2 in NW 2 mph 3 mph 73% 0 in 42 W/m2
07:22 49.1 °F 40.5 °F 30.2 in West 4 mph 4 mph 72% 0 in 42 W/m2
07:27 49.3 °F 40.6 °F 30.2 in NNE 2.9 mph 4 mph 72% 0 in 44 W/m2
07:32 49.5 °F 40.8 °F 30.2 in NW 0.9 mph 2 mph 72% 0 in 44 W/m2
07:37 49.5 °F 40.5 °F 30.2 in WNW 0.9 mph 3 mph 71% 0 in 46 W/m2
07:42 49.6 °F 40.6 °F 30.2 in Calm   1 mph 71% 0 in 46 W/m2
07:47 49.8 °F 40.8 °F 30.2 in North 2.9 mph 6 mph 71% 0 in 176 W/m2
07:52 49.8 °F 40.5 °F 30.2 in WNW 0.9 mph 3 mph 70% 0 in 253 W/m2
07:57 50.4 °F 41 °F 30.2 in WNW 2.9 mph 5 mph 70% 0 in 265 W/m2
08:02 50.5 °F 40.8 °F 30.2 in East 2 mph 5 mph 69% 0 in 276 W/m2
08:07 50.7 °F 40.5 °F 30.2 in NW 0.9 mph 4 mph 68% 0 in 294 W/m2
08:12 51.3 °F 41 °F 30.2 in NW 2 mph 4 mph 68% 0 in 306 W/m2
08:17 51.4 °F 41.2 °F 30.2 in East 0.9 mph 4 mph 68% 0 in 315 W/m2
08:22 51.8 °F 40.8 °F 30.2 in NW 2 mph 9 mph 66% 0 in 336 W/m2
08:27 51.6 °F 41 °F 30.2 in West 0.9 mph 2 mph 67% 0 in 348 W/m2
08:32 52.2 °F 41.5 °F 30.2 in East 2 mph 9 mph 67% 0 in 364 W/m2
08:37 52.2 °F 41.2 °F 30.2 in Calm   2 mph 66% 0 in 376 W/m2
08:42 52.5 °F 41.5 °F 30.2 in NNE 0.9 mph 3 mph 66% 0 in 388 W/m2
08:47 52.9 °F 41.4 °F 30.2 in NE 2.9 mph 6 mph 65% 0 in 401 W/m2
08:52 52.9 °F 41.4 °F 30.2 in South 0.9 mph 3 mph 65% 0 in 415 W/m2
08:57 53.2 °F 41.7 °F 30.2 in WNW 2.9 mph 4 mph 65% 0 in 427 W/m2
09:02 53.4 °F 41.5 °F 30.2 in NE 2.9 mph 4 mph 64% 0 in 439 W/m2
09:07 53.8 °F 41.5 °F 30.2 in ESE 2 mph 2 mph 63% 0 in 455 W/m2
09:12 54.1 °F 42.3 °F 30.2 in ENE 0.9 mph 4 mph 64% 0 in 471 W/m2
09:17 54.7 °F 41.9 °F 30.2 in NE 2.9 mph 7 mph 62% 0 in 482 W/m2
09:22 54.9 °F 41.2 °F 30.2 in WNW 2 mph 4 mph 60% 0 in 496 W/m2
09:28 54.9 °F 41.2 °F 30.2 in NE 2 mph 6 mph 60% 0 in 510 W/m2
09:33 55.2 °F 40.6 °F 30.2 in WNW 2.9 mph 3 mph 58% 0 in 520 W/m2
09:38 55.8 °F 40.8 °F 30.2 in NNE 2 mph 4 mph 57% 0 in 536 W/m2
09:43 56.1 °F 41.2 °F 30.2 in NNE 2 mph 8 mph 57% 0 in 548 W/m2
09:48 56.5 °F 41.4 °F 30.2 in NW 4 mph 4 mph 57% 0 in 555 W/m2
09:53 56.3 °F 40.3 °F 30.2 in WNW 4 mph 8 mph 55% 0 in 566 W/m2
09:58 55.9 °F 40.5 °F 30.2 in WNW 4 mph 6 mph 56% 0 in 577 W/m2
10:03 55.9 °F 41.4 °F 30.2 in West 2 mph 4 mph 58% 0 in 591 W/m2
10:08 56.1 °F 40.1 °F 30.2 in North 4 mph 8 mph 55% 0 in 601 W/m2
10:13 56.1 °F 39.7 °F 30.2 in SW 4.9 mph 5 mph 54% 0 in 524 W/m2
10:18 55.9 °F 39.9 °F 30.2 in East 6 mph 7 mph 55% 0 in 54 W/m2
10:23 56.1 °F 40.1 °F 30.2 in WNW 4 mph 5 mph 55% 0 in 635 W/m2
10:28 55.9 °F 39.6 °F 30.2 in North 2.9 mph 9 mph 54% 0 in 645 W/m2
10:33 56.5 °F 41 °F 30.2 in ESE 4 mph 4 mph 56% 0 in 650 W/m2
10:38 57.4 °F 40.8 °F 30.2 in East 2 mph 9 mph 54% 0 in 666 W/m2
10:43 57.6 °F 40.1 °F 30.2 in Calm   4 mph 52% 0 in 675 W/m2
10:48 57.7 °F 40.6 °F 30.2 in ENE 2.9 mph 4 mph 53% 0 in 682 W/m2
10:53 57.9 °F 40.8 °F 30.2 in ENE 4.9 mph 8 mph 53% 0 in 693 W/m2
10:58 58.3 °F 41.7 °F 30.2 in NE 0.9 mph 3 mph 54% 0 in 701 W/m2
11:03 58.6 °F 41 °F 30.2 in NW 0.9 mph 3 mph 52% 0 in 710 W/m2
11:08 58.6 °F 40.6 °F 30.2 in ESE 2.9 mph 4 mph 51% 0 in 717 W/m2
11:13 58.8 °F 40.8 °F 30.2 in NE 2 mph 8 mph 51% 0 in 728 W/m2
11:18 58.8 °F 40.8 °F 30.2 in NNW 2 mph 7 mph 51% 0 in 735 W/m2
11:23 58.8 °F 40.8 °F 30.2 in West 2 mph 8 mph 51% 0 in 740 W/m2
11:28 58.8 °F 40.8 °F 30.2 in WSW 4.9 mph 6 mph 51% 0 in 751 W/m2
11:33 58.8 °F 40.3 °F 30.2 in WNW 2.9 mph 4 mph 50% 0 in 754 W/m2
11:38 58.8 °F 40.8 °F 30.2 in SW 0.9 mph 5 mph 51% 0 in 763 W/m2
11:43 59.5 °F 41.4 °F 30.2 in ESE 0.9 mph 3 mph 51% 0 in 772 W/m2
11:48 59.9 °F 40.1 °F 30.2 in West 4 mph 6 mph 48% 0 in 775 W/m2
11:53 60.1 °F 40.3 °F 30.2 in NE 4 mph 4 mph 48% 0 in 786 W/m2
11:58 60.1 °F 39.2 °F 30.2 in West 2.9 mph 3 mph 46% 0 in 791 W/m2
12:03 60.3 °F 39.4 °F 30.2 in ENE 2.9 mph 4 mph 46% 0 in 793 W/m2
12:08 60.6 °F 39.2 °F 30.2 in ESE 2 mph 2 mph 45% 0 in 803 W/m2
12:13 60.6 °F 38.7 °F 30.2 in NW 2.9 mph 7 mph 44% 0 in 807 W/m2
12:18 60.8 °F 38.7 °F 30.2 in NE 2 mph 3 mph 44% 0 in 814 W/m2
12:23 60.8 °F 38.7 °F 30.2 in ENE 2 mph 7 mph 44% 0 in 814 W/m2
12:28 60.8 °F 38.1 °F 30.2 in East 6.9 mph 8 mph 43% 0 in 821 W/m2
12:33 61.2 °F 40.3 °F 30.2 in East 2.9 mph 3 mph 46% 0 in 823 W/m2
12:38 61.3 °F 39.2 °F 30.2 in Calm   9 mph 44% 0 in 826 W/m2
12:43 61.5 °F 41.7 °F 30.2 in NW 0.9 mph 3 mph 48% 0 in 830 W/m2
12:48 61.9 °F 39.7 °F 30.2 in WSW 2 mph 4 mph 44% 0 in 780 W/m2
12:53 62.1 °F 38.7 °F 30.2 in NNW 2 mph 3 mph 42% 0 in 817 W/m2
12:58 62.2 °F 40.1 °F 30.2 in NE 4.9 mph 8 mph 44% 0 in 830 W/m2
13:03 61.9 °F 39.7 °F 30.2 in NE 0.9 mph 2 mph 44% 0 in 835 W/m2
13:08 62.2 °F 40.1 °F 30.2 in ENE 2.9 mph 7 mph 44% 0 in 833 W/m2
13:13 62.6 °F 40.5 °F 30.2 in NW 0.9 mph 4 mph 44% 0 in 838 W/m2
13:18 62.6 °F 39.7 °F 30.2 in WNW 2 mph 7 mph 43% 0 in 840 W/m2
13:23 62.1 °F 38.7 °F 30.2 in West 4 mph 5 mph 42% 0 in 837 W/m2
13:28 62.2 °F 39.4 °F 30.2 in West 2 mph 8 mph 43% 0 in 835 W/m2
13:33 63 °F 40.1 °F 30.2 in ESE 2.9 mph 4 mph 43% 0 in 835 W/m2
13:38 63.3 °F 38.7 °F 30.2 in West 2 mph 7 mph 40% 0 in 840 W/m2
13:43 63.3 °F 40.5 °F 30.2 in Calm   3 mph 43% 0 in 838 W/m2
13:48 63.7 °F 37.6 °F 30.2 in NNW 2.9 mph 3 mph 38% 0 in 837 W/m2
13:53 63.7 °F 37.6 °F 30.2 in WNW 2.9 mph 4 mph 38% 0 in 814 W/m2
13:58 63.7 °F 39.6 °F 30.2 in East 2.9 mph 7 mph 41% 0 in 831 W/m2
14:03 63.7 °F 39.6 °F 30.2 in East 2 mph 4 mph 41% 0 in 828 W/m2
14:08 64 °F 39.2 °F 30.2 in East 4.9 mph 7 mph 40% 0 in 830 W/m2
14:13 64.4 °F 40.8 °F 30.2 in NNE 2 mph 5 mph 42% 0 in 824 W/m2
14:18 64.2 °F 38.7 °F 30.2 in NNW 0.9 mph 4 mph 39% 0 in 821 W/m2
14:23 64.4 °F 39.6 °F 30.2 in East 2 mph 2 mph 40% 0 in 821 W/m2
14:28 64.8 °F 39.9 °F 30.2 in ENE 4.9 mph 5 mph 40% 0 in 816 W/m2
14:33 64.6 °F 41 °F 30.2 in North 2 mph 2 mph 42% 0 in 810 W/m2
14:38 64.9 °F 40.1 °F 30.2 in North 0.9 mph 6 mph 40% 0 in 809 W/m2
14:43 64.8 °F 40.5 °F 30.2 in WNW 2.9 mph 4 mph 41% 0 in 800 W/m2
14:48 64.8 °F 39.9 °F 30.2 in North 2 mph 4 mph 40% 0 in 796 W/m2
14:53 64.8 °F 40.5 °F 30.2 in West 4 mph 8 mph 41% 0 in 788 W/m2
14:59 64.8 °F 39.2 °F 30.2 in North 2 mph 3 mph 39% 0 in 784 W/m2
15:04 64.9 °F 40.6 °F 30.2 in NE 0.9 mph 8 mph 41% 0 in 777 W/m2
15:09 65.1 °F 40.3 °F 30.2 in SSE 0.9 mph 7 mph 40% 0 in 777 W/m2
15:14 65.7 °F 41.4 °F 30.2 in East 2 mph 4 mph 41% 0 in 770 W/m2
15:19 65.8 °F 40.8 °F 30.2 in ENE 11 mph 11 mph 40% 0 in 765 W/m2
15:24 66 °F 41 °F 30.2 in ENE 0.9 mph 6 mph 40% 0 in 752 W/m2
15:29 66 °F 41 °F 30.2 in NE 2 mph 7 mph 40% 0 in 745 W/m2
15:34 66.2 °F 41.7 °F 30.2 in West 2 mph 3 mph 41% 0 in 737 W/m2
15:39 66.7 °F 42.3 °F 30.2 in North 2 mph 4 mph 41% 0 in 729 W/m2
15:44 66.9 °F 40.5 °F 30.2 in WNW 0.9 mph 3 mph 38% 0 in 722 W/m2
15:49 66.7 °F 42.3 °F 30.2 in West 6 mph 7 mph 41% 0 in 712 W/m2
15:54 66.6 °F 41.5 °F 30.2 in NW 0.9 mph 5 mph 40% 0 in 705 W/m2
15:59 66.7 °F 41 °F 30.2 in Calm   3 mph 39% 0 in 696 W/m2
16:04 66.7 °F 42.3 °F 30.2 in WNW 2 mph 5 mph 41% 0 in 687 W/m2
16:09 66.9 °F 41.9 °F 30.2 in ESE 2 mph 4 mph 40% 0 in 677 W/m2
16:14 67.5 °F 42.3 °F 30.2 in North 4 mph 6 mph 40% 0 in 671 W/m2
16:19 67.5 °F 41.7 °F 30.2 in NNE 2 mph 2 mph 39% 0 in 661 W/m2
16:24 67.3 °F 41.5 °F 30.2 in SE 2 mph 6 mph 39% 0 in 649 W/m2
16:29 67.5 °F 42.3 °F 30.2 in NNW 2 mph 4 mph 40% 0 in 640 W/m2
16:34 67.8 °F 41.4 °F 30.2 in West 6 mph 8 mph 38% 0 in 631 W/m2
16:39 67.8 °F 42.6 °F 30.2 in East 2 mph 5 mph 40% 0 in 621 W/m2
16:44 68 °F 41.4 °F 30.2 in WNW 4.9 mph 8 mph 38% 0 in 612 W/m2
16:49 67.8 °F 41.9 °F 30.2 in West 4 mph 7 mph 39% 0 in 599 W/m2
16:54 67.6 °F 42.4 °F 30.2 in West 2.9 mph 7 mph 40% 0 in 585 W/m2
16:59 67.6 °F 43.2 °F 30.2 in NNW 2.9 mph 3 mph 41% 0 in 575 W/m2
17:04 67.8 °F 42.6 °F 30.2 in Calm   4 mph 40% 0 in 564 W/m2
17:09 68.2 °F 42.3 °F 30.2 in Calm   2 mph 39% 0 in 554 W/m2
17:14 68.4 °F 41.7 °F 30.2 in ENE 2 mph 2 mph 38% 0 in 540 W/m2
17:19 68.2 °F 41.5 °F 30.2 in East 0.9 mph 3 mph 38% 0 in 531 W/m2
17:24 68.4 °F 42.4 °F 30.2 in ESE 2 mph 3 mph 39% 0 in 519 W/m2
17:29 68.5 °F 42.6 °F 30.2 in NE 2.9 mph 3 mph 39% 0 in 510 W/m2
17:34 68.5 °F 41.9 °F 30.2 in NW 0.9 mph 4 mph 38% 0 in 497 W/m2
17:39 68.5 °F 41.9 °F 30.2 in ESE 0.9 mph 4 mph 38% 0 in 485 W/m2
17:44 68.9 °F 42.3 °F 30.2 in NNW 2 mph 9 mph 38% 0 in 469 W/m2
17:49 69.1 °F 42.4 °F 30.2 in WNW 2 mph 5 mph 38% 0 in 455 W/m2
17:54 69.1 °F 41.7 °F 30.2 in East 2.9 mph 9 mph 37% 0 in 443 W/m2
17:59 68.7 °F 42.1 °F 30.2 in NW 0.9 mph 4 mph 38% 0 in 427 W/m2
18:04 68.7 °F 42.8 °F 30.2 in NE 2.9 mph 5 mph 39% 0 in 418 W/m2
18:09 68.7 °F 42.1 °F 30.2 in SSE 0.9 mph 4 mph 38% 0 in 406 W/m2
18:14 68.7 °F 41.4 °F 30.2 in NNW 4 mph 6 mph 37% 0 in 394 W/m2
18:20 68.9 °F 41.5 °F 30.2 in NNW 2.9 mph 3 mph 37% 0 in 378 W/m2
18:25 69.1 °F 41.7 °F 30.2 in SW 2 mph 6 mph 37% 0 in 362 W/m2
18:30 68.9 °F 41.5 °F 30.2 in NNW 2.9 mph 5 mph 37% 0 in 350 W/m2
18:35 69.1 °F 41.7 °F 30.2 in ENE 2.9 mph 5 mph 37% 0 in 338 W/m2
18:40 68.9 °F 41.5 °F 30.2 in NE 0.9 mph 3 mph 37% 0 in 323 W/m2
18:45 69.1 °F 42.4 °F 30.2 in NNE 2 mph 3 mph 38% 0 in 311 W/m2
18:50 69.3 °F 42.6 °F 30.2 in NNW 4 mph 4 mph 38% 0 in 295 W/m2
18:55 69.4 °F 42.8 °F 30.2 in WNW 2.9 mph 7 mph 38% 0 in 283 W/m2
19:00 69.4 °F 42.8 °F 30.2 in WNW 0.9 mph 3 mph 38% 0 in 269 W/m2
19:05 69.3 °F 41.9 °F 30.2 in NW 7 mph 7 mph 37% 0 in 257 W/m2
19:11 69.1 °F 42.4 °F 30.2 in NW 0.9 mph 3 mph 38% 0 in 241 W/m2
19:16 69.1 °F 42.4 °F 30.2 in NNW 4.9 mph 6 mph 38% 0 in 229 W/m2
19:21 68.7 °F 42.1 °F 30.2 in WNW 4 mph 5 mph 38% 0 in 216 W/m2
19:26 68.5 °F 42.6 °F 30.2 in ENE 4 mph 4 mph 39% 0 in 199 W/m2
19:31 68.5 °F 43.3 °F 30.2 in NNW 2.9 mph 4 mph 40% 0 in 185 W/m2
19:36 68.5 °F 42.6 °F 30.2 in NE 2 mph 3 mph 39% 0 in 172 W/m2
19:41 68.4 °F 42.4 °F 30.2 in North 0.9 mph 5 mph 39% 0 in 158 W/m2
19:46 68.4 °F 42.4 °F 30.2 in WNW 2 mph 4 mph 39% 0 in 141 W/m2
19:51 68.4 °F 42.4 °F 30.2 in NNW 2 mph 5 mph 39% 0 in 128 W/m2
19:56 68.2 °F 42.3 °F 30.2 in NNE 0.9 mph 3 mph 39% 0 in 113 W/m2
20:01 68.2 °F 42.3 °F 30.2 in Calm   3 mph 39% 0 in 102 W/m2
20:06 68.2 °F 43 °F 30.2 in NE 2 mph 3 mph 40% 0 in 88 W/m2
20:11 68 °F 42.8 °F 30.2 in West 4 mph 4 mph 40% 0 in 77 W/m2
20:16 67.8 °F 42.6 °F 30.2 in NNW 0.9 mph 4 mph 40% 0 in 67 W/m2
20:21 67.6 °F 43.2 °F 30.2 in West 0.9 mph 4 mph 41% 0 in 58 W/m2
20:26 67.5 °F 43 °F 30.2 in West 2 mph 3 mph 41% 0 in 47 W/m2
20:31 66.9 °F 43.2 °F 30.2 in West 2 mph 2 mph 42% 0 in 40 W/m2
20:36 66.7 °F 44.1 °F 30.2 in West 2 mph 3 mph 44% 0 in 33 W/m2
20:41 66 °F 44.6 °F 30.2 in West 2 mph 2 mph 46% 0 in 26 W/m2
20:46 65.7 °F 45 °F 30.2 in Calm   3 mph 47% 0 in 21 W/m2
20:51 65.1 °F 44.4 °F 30.2 in WSW 0.9 mph 2 mph 47% 0 in 16 W/m2
20:56 64.8 °F 44.6 °F 30.2 in WSW 0.9 mph 3 mph 48% 0 in 14 W/m2
21:01 64.2 °F 45.1 °F 30.2 in Calm     50% 0 in 11 W/m2
21:06 63.7 °F 45.7 °F 30.2 in Calm   2 mph 52% 0 in 9 W/m2
21:11 63.1 °F 45.1 °F 30.2 in Calm   1 mph 52% 0 in 7 W/m2
21:16 62.6 °F 45.1 °F 30.2 in WSW 0.9 mph 2 mph 53% 0 in 5 W/m2
21:21 61.9 °F 45.1 °F 30.2 in Calm     54% 0 in 0 W/m2
21:26 61.2 °F 45.3 °F 30.2 in Calm     56% 0 in 0 W/m2
21:31 60.6 °F 44.8 °F 30.2 in Calm     56% 0 in 0 W/m2
21:36 60.1 °F 44.8 °F 30.2 in Calm   1 mph 57% 0 in 0 W/m2
21:41 59.4 °F 44.1 °F 30.2 in WSW 0.9 mph 2 mph 57% 0 in 0 W/m2
21:46 59 °F 44.2 °F 30.2 in West 0.9 mph 1 mph 58% 0 in 0 W/m2
21:51 58.6 °F 44.4 °F 30.2 in Calm   1 mph 59% 0 in 0 W/m2
21:56 58.5 °F 44.6 °F 30.2 in Calm   1 mph 60% 0 in 0 W/m2
22:01 58.3 °F 44.4 °F 30.2 in Calm     60% 0 in 0 W/m2
22:06 58.1 °F 44.8 °F 30.2 in Calm     61% 0 in 0 W/m2
22:11 57.7 °F 44.8 °F 30.2 in Calm     62% 0 in 0 W/m2
22:16 57.6 °F 44.6 °F 30.2 in Calm     62% 0 in 0 W/m2
22:21 57.4 °F 45 °F 30.2 in Calm     63% 0 in 0 W/m2
22:26 57 °F 45 °F 30.2 in Calm     64% 0 in 0 W/m2
22:31 56.7 °F 45 °F 30.2 in West 2 mph 2 mph 65% 0 in 0 W/m2
22:36 56.7 °F 45.5 °F 30.2 in West 0.9 mph 2 mph 66% 0 in 0 W/m2
22:41 56.5 °F 45.3 °F 30.2 in West 0.9 mph 2 mph 66% 0 in 0 W/m2
22:46 56.1 °F 45 °F 30.2 in WSW 0.9 mph 2 mph 66% 0 in 0 W/m2
22:51 56.1 °F 45 °F 30.2 in WSW 2 mph 2 mph 66% 0 in 0 W/m2
22:56 56.3 °F 45.1 °F 30.2 in WNW 2 mph 2 mph 66% 0 in 0 W/m2
23:01 56.5 °F 45.3 °F 30.2 in WNW 2 mph 2 mph 66% 0 in 0 W/m2
23:06 56.5 °F 45.3 °F 30.2 in WNW 0.9 mph 2 mph 66% 0 in 0 W/m2
23:11 56.3 °F 45.1 °F 30.2 in WNW 0.9 mph 1 mph 66% 0 in 0 W/m2
23:16 56.1 °F 45 °F 30.2 in WNW 0.9 mph 2 mph 66% 0 in 0 W/m2
23:21 55.9 °F 45.1 °F 30.2 in WNW 0.9 mph 2 mph 67% 0 in 0 W/m2
23:26 55.8 °F 45 °F 30.2 in WNW 0.9 mph 2 mph 67% 0 in 0 W/m2
23:31 55.6 °F 45.1 °F 30.2 in Calm   1 mph 68% 0 in 0 W/m2
23:36 55.2 °F 44.8 °F 30.2 in WNW 0.9 mph 2 mph 68% 0 in 0 W/m2
23:41 54.9 °F 45 °F 30.2 in West 0.9 mph 3 mph 69% 0 in 0 W/m2
23:46 54.7 °F 45.1 °F 30.2 in WNW 0.9 mph 2 mph 70% 0 in 0 W/m2
23:51 54.3 °F 44.8 °F 30.2 in WNW 2 mph 2 mph 70% 0 in 0 W/m2
23:56 54.3 °F 45.1 °F 30.2 in Calm   2 mph 71% 0 in 0 W/m2
Juneau County Weather
Compliments of Weather Underground - 4 mb